Showing default

ERNST, 60528

Orbit data source: Space-Track

ERNST, 60528 is a German payload satellite in SSO that was launched on Fri, 16 Aug 2024 UTC via an FALCON 9 launch vehicle from the Air Force Western Test Range (AFWTR). Payload-class satellites include a variety of spacecraft equipped with specific instruments for various scientific and technological missions. These include communications satellites like Starlink; space stations such as the ISS; scientific satellites like the Hubble; Earth observation satellites from companies like Planet Labs, Umbra, and HawkEye 360; GPS; miniature CubeSats for education and research; and military/defense satellites.

Loading next visibility...
Identifier
60528, 2024-149BN
Orbit
SSO
Country
Flag of DEDE / GER
Related business
Manufacturer
FRAUN
Mission
Operational Amateur Technology
Bus & Motor
CUBESAT 12U, Unknown motor
Mass
20 kg wet, 20 kg dry
Launch date (UTC)
2024-08-16 (1 year ago)
Launch vehicle
FALCON 9
Launch site
Air Force Western Test Range (AFWTR)
Object type
Payload
Rocket body
Debris
Shape & HBR
Box + 1 Sail, 0.8 m
Radar Cross Section
0.110 m², Small (<0.1 m²)

Expand to show TLE details & history
Last TLE update: 14 hours ago

TLE from 14 hours ago
0 ERNST
1 60528U 24149BN  25289.17626683  .00015402  00000-0  51278-3 0  9994
2 60528  97.4032   7.1812 0008312  92.7997 267.4195 15.31191584 64837
Epoch: 2025-10-16T04:13Z
TLE epoch observation values (Epoch: 2025-10-16T04:13:49.454Z)
Latitude
-0.00006°
Longitude
-81.2146°
Altitude
475.623 km
Speed
7.628 km/s
True Right ascension
00h 28m 43s
True Declination
0° 00' 00"
Sunlit
Object was in full shadow at epoch
Visualization orbit readout
Latitude
Unknown
Longitude
Unknown
Altitude
Unknown
Speed
Unknown
Apparent Right ascension
Unknown
Apparent Declination
Unknown
Sunlit
N/A
Visualization observer readout
Local Sidereal Time
12:35:43
Azimuth
Unknown
Elevation
Unknown
Doppler factor
Unknown
Orbital elements
Apogee altitude
474.898 km
Perigee altitude
463.515 km
Semi-major axis
6,847.344 km
Eccentricity
0.00083
Inclination
97.4032°
RAAN
7.1812°
Arg. of periapsis
92.7997°
True anomaly
267.32435°
Mean anomaly
267.4195°
Eccentric anomaly
267.37193°
Mean motion
3.83054 °/min
Orbital period
93.98 mins
BSTAR
0.00051278
Loading maneuver chart data...
Computing Atmospheric mass density...
Loading historical data...
Loading historical data...
Loading historical data...
Loading historical data...
Loading historical data...
Loading historical data...
Loading historical data...

Documentation

Showing up to 5 results
|